SCP
0 0 0 0 0 0 0 0 0 0 0 0 0 0 0 0 0 0 0 0 0 0 0 0 0 0 0 0 0 0 0 0 0 -0 0 0 0 0 0 0 0 0 0
0 0 0 0 0 0 0 0 0 0 0 0 0 0 0 0 0 0 0 0 0 0 0 0 0 0 0 0 0 0 0 0 0 -0 -0 -0 0 0 0 0 0 0 0
0 0 0 0 0 0 0 0 0 0 0 0 0 0 0 0 0 0 0 0 0 0 0 0 0 0 0 0 0 0 0 0 0 0 -0 0 0 -0 0 0 0 0 0
0 0 0 0 0 0 0 0 0 0 0 0 0 0 0 0 0 0 0 0 0 0 0 0 0 0 0 0 0 0 0 0 0 -0 0 0 0 -0 -0 -0 0 0 0
0 0 0 0 0 0 0 0 0 0 0 0 0 0 0 0 0 0 0 0 0 0 0 0 0 0 0 0 0 0 0 0 0 0 -0 0 0 0 -0 -0 -0 -0 -0
0 0 0 0 0 0 0 0 0 0 0 0 0 0 0 0 0 0 0 0 0 0 0 0 0 0 0 0 0 0 0 0 0 0 0 0 0 0 -0 -0 -0 -0 0
0 0 0 0 0 0 0 0 0 0 0 0 0 0 0 0 0 0 0 0 0 0 0 0 0 0 0 0 0 0 0 0 0 0 0 0 0 0 0 0 0 0 0
0 0 0 0 0 0 0 0 0 0 0 0 0 0 0 0 0 0 0 0 0 0 0 0 0 0 0 0 0 0 0 0 0 0 0 0 0 0 0 0 0 0 0
0 0 0 0 0 0 0 0 0 0 0 0 0 0 0 0 0 0 0 0 0 0 0 0 0 0 0 0 0 0 0 0 0 0 0 0 0 0 0 0 0 0 0
0 0 0 0 0 0 0 0 0 0 0 0 0 0 0 0 0 0 0 0 0 0 0 0 0 0 0 0 0 0 0 0 0 0 0 0 0 0 0 0 0 0 0
0 0 0 0 0 0 0 0 0 0 0 0 0 0 0 0 0 0 0 0 0 0 0 0 0 0 0 0 0 0 0 0 0 0 0 0 0 0 0 0 0 0 0
0 0 0 0 0 0 0 0 0 0 0 0 0 0 0 0 0 0 0 0 0 0 0 0 0 0 0 0 0 0 0 0 0 0 0 0 0 0 0 0 0 0 0
0 0 0 0 0 0 0 0 0 0 0 0 0 0 0 0 0 0 0 0 0 0 0 0 0 0 0 0 0 0 0 0 0 0 0 0 0 0 0 0 0 0 0
0 0 0 0 0 0 0 0 0 0 0 0 0 0 0 0 0 0 0 0 0 0 0 0 0 0 0 0 0 0 0 0 0 0 0 0 0 0 0 0 0 0 0
0 0 0 0 0 0 0 0 0 0 0 0 0 0 0 0 0 0 0 0 0 0 0 0 0 0 0 0 0 0 0 0 0 0 0 0 0 0 0 0 0 0 0
0 0 0 0 0 0 0 0 0 0 0 0 0 0 0 0 0 0 0 0 0 0 0 0 0 0 0 0 0 0 0 0 0 0 0 0 0 0 0 0 0 0 0
0 0 0 0 0 0 0 0 0 0 0 0 0 0 0 0 0 0 0 0 0 0 0 0 0 0 0 0 0 0 0 0 0 0 0 0 0 0 0 0 0 0 0
0 0 0 0 0 0 0 0 0 0 0 0 0 0 0 0 0 0 0 0 0 0 0 0 0 0 0 0 0 0 0 0 0 0 0 0 0 0 0 0 0 0 0
0 0 0 0 0 0 0 0 0 0 0 0 0 0 0 0 0 0 0 0 0 0 0 0 0 0 0 0 0 0 0 0 0 0 0 0 0 0 0 0 0 0 0
0 0 0 0 0 0 0 0 0 0 0 0 0 0 0 0 0 0 0 0 0 0 0 0 0 0 0 0 0 0 0 0 0 0 0 0 0 0 0 0 0 0 0
0 0 0 0 0 0 0 0 0 0 0 0 0 0 0 0 0 0 0 0 0 0 0 0 0 0 0 0 0 0 0 0 0 0 0 0 0 0 0 0 0 0 0
0 0 0 0 0 0 0 0 0 0 0 0 0 0 0 0 0 0 0 0 0 0 0 0 0 0 0 0 0 0 0 0 0 0 0 0 0 0 0 0 0 0 0
0 0 0 0 0 0 0 0 0 0 0 0 0 0 0 0 0 0 0 0 0 0 0 0 0 0 0 0 0 0 0 0 0 0 0 0 0 0 0 0 0 0 0
0 0 0 0 0 0 0 0 0 0 0 0 0 0 0 0 0 0 0 0 0 0 0 0 0 0 0 0 0 0 0 0 0 0 0 0 0 0 0 0 0 0 0
0 0 0 0 0 0 0 0 0 0 0 0 0 0 0 0 0 0 0 0 0 0 0 0 0 0 0 0 0 0 0 0 0 0 0 0 0 0 0 0 0 0 0
0 0 0 0 0 0 0 0 0 0 0 0 0 0 0 0 0 0 0 0 0 0 0 0 0 0 0 0 0 0 0 0 0 0 0 0 0 0 0 0 0 0 0
Wind_Speed_500mb
47 50 51 50 44 41 34 28 22 19 16 13 12 10 7 6 6 6 8 9 10 11 12 12 13 16 19 23 24 24 28 28 31 34 43 44 25 22 21 10 13 17 19
50 55 60 61 54 46 42 35 29 24 21 17 13 8 4 5 6 7 7 9 11 13 13 14 14 16 19 19 21 22 26 30 25 21 20 14 27 36 26 13 19 14 15
63 65 67 68 60 56 51 42 35 30 27 22 17 14 11 9 7 7 8 9 11 12 14 15 16 16 17 17 19 22 20 23 22 20 15 12 10 19 18 22 23 22 17
66 68 71 72 68 59 54 49 42 36 33 27 23 19 16 14 10 8 8 8 9 11 13 15 16 17 18 20 22 22 23 20 16 21 23 24 18 11 10 6 12 19 15
72 73 77 73 66 60 59 53 47 43 38 33 29 25 24 17 14 12 10 9 8 9 11 13 15 15 17 19 21 21 19 19 20 16 16 16 11 9 8 3 6 7 7
70 68 72 69 65 60 61 59 55 48 44 40 35 31 29 23 21 18 15 12 10 8 9 10 12 14 15 16 17 18 19 20 18 18 15 6 4 3 2 6 10 9 8
62 67 72 73 70 69 68 64 62 56 50 46 42 37 33 28 26 23 19 15 13 10 8 8 10 11 13 14 15 16 17 17 16 16 15 13 11 10 8 7 9 10 12
50 63 69 71 66 65 67 67 68 63 56 52 48 42 37 33 30 26 23 19 15 12 9 7 7 8 10 11 12 13 13 14 15 14 13 13 13 13 12 11 13 10 11
38 53 59 62 59 59 62 63 68 66 60 57 53 46 43 39 35 32 29 24 19 16 12 8 6 5 6 8 9 10 11 11 11 10 11 11 12 12 12 11 11 11 9
25 28 41 49 50 51 54 57 63 66 62 62 57 50 44 41 39 36 32 27 24 20 15 10 7 3 1 2 4 5 6 7 6 7 8 9 10 10 11 14 17 17 13
31 25 27 33 39 42 49 56 62 68 70 68 62 57 51 48 45 41 37 33 28 24 20 17 14 11 8 5 3 2 2 3 4 4 5 6 7 8 9 11 14 17 20
23 24 23 25 30 39 46 53 59 68 74 71 68 65 59 55 52 46 41 37 32 29 26 23 20 18 15 13 11 9 8 7 6 6 6 7 7 7 6 6 7 9 13
12 7 8 16 26 35 45 52 57 66 75 78 75 73 70 66 60 52 47 44 40 35 31 28 26 24 22 20 18 17 16 14 13 12 11 11 12 13 13 13 13 14 16
4 5 13 21 31 38 43 48 55 62 74 84 86 83 82 78 69 60 56 52 47 43 39 36 34 32 29 28 27 26 25 23 21 20 19 18 18 17 17 19 21 22 23
35 40 48 47 42 46 49 49 53 60 69 85 93 94 91 86 79 71 67 62 58 54 51 48 46 43 39 37 35 33 33 31 29 28 27 26 25 24 23 23 23 24 26
60 69 69 65 62 54 53 56 55 58 66 77 91 98 99 96 90 83 79 74 71 67 64 61 58 56 52 47 45 43 42 40 38 37 35 35 33 32 31 29 28 29 30
65 72 68 62 62 60 56 60 57 56 61 70 82 98 102 101 96 93 89 85 84 80 77 73 69 67 63 59 56 54 52 50 47 45 44 43 41 40 38 38 36 36 37
58 60 61 56 56 59 59 56 57 58 58 60 70 84 98 101 101 99 95 94 94 92 88 84 81 77 72 67 65 63 62 60 58 55 52 50 47 47 45 45 45 43 42
47 48 53 50 48 45 48 51 53 55 60 61 61 70 80 91 96 96 96 98 97 95 94 92 89 88 83 75 71 68 68 66 64 62 59 56 54 51 52 54 50 50 48
13 21 26 30 33 38 44 47 48 52 53 53 55 61 68 74 79 81 83 85 88 91 91 90 88 86 84 78 77 77 75 74 70 67 66 63 61 57 56 59 56 58 52
14 17 19 17 17 20 24 30 32 37 38 38 44 50 56 59 60 63 67 69 71 75 78 80 78 75 73 72 70 73 75 74 69 67 64 60 56 57 55 53 53 53 48
7 9 12 15 17 14 11 15 21 26 31 38 43 47 50 55 59 59 60 60 61 64 65 67 69 68 66 66 64 61 66 63 63 64 60 57 53 47 42 42 50 51 51
10 8 6 7 11 15 16 14 12 13 17 23 30 36 41 45 46 47 49 50 51 53 55 58 63 62 61 60 57 51 54 49 52 56 58 53 51 50 47 43 42 45 54
14 16 16 16 14 12 11 11 13 16 18 20 22 24 26 29 31 34 35 39 42 45 47 49 53 52 49 51 47 45 47 43 46 55 53 52 52 53 57 58 60 60 61
21 24 24 21 22 23 21 20 18 18 18 21 22 24 25 24 26 28 29 32 34 34 38 40 41 42 42 44 38 36 39 42 46 49 53 56 56 57 59 62 65 65 62
22 26 29 27 25 25 27 27 27 27 27 26 26 28 28 28 30 31 31 32 32 34 35 38 38 36 37 36 34 31 32 33 35 42 50 54 56 58 56 54 54 52 49
Wind_Direction_500mb
221 218 221 228 226 229 234 238 239 232 227 217 207 193 165 135 112 85 76 73 72 73 74 69 64 59 61 58 60 60 62 87 99 99 81 71 75 78 88 117 175 175 174
216 219 220 227 228 230 231 232 235 233 230 227 229 229 191 150 129 113 95 83 79 80 83 79 72 68 69 68 66 68 71 84 117 118 116 100 71 68 68 105 103 116 147
212 215 219 225 228 226 227 230 234 232 231 230 228 226 213 201 177 145 117 102 92 85 81 83 82 78 78 81 80 76 77 79 84 126 138 125 109 105 74 72 71 78 77
218 218 223 225 228 226 224 225 228 230 228 226 224 221 218 218 199 168 145 125 109 96 89 85 82 77 72 72 73 73 76 87 95 93 104 103 126 120 132 56 70 69 59
217 215 226 229 231 227 226 223 224 227 225 223 221 221 225 218 209 193 177 157 132 111 98 90 83 77 71 68 69 73 77 77 78 93 112 128 122 140 158 204 152 14 33
217 217 225 230 232 230 228 223 223 224 224 222 222 222 225 220 213 205 194 179 163 137 110 94 86 80 76 74 72 70 70 70 73 80 89 112 144 144 202 278 328 24 46
212 209 216 223 227 229 228 224 223 223 223 221 222 221 223 218 216 213 206 195 183 165 138 111 91 82 78 74 70 66 63 66 68 70 76 80 76 66 55 37 21 39 78
198 209 219 227 229 231 231 227 225 222 222 222 221 221 220 220 219 218 213 207 195 183 167 144 113 89 77 73 70 67 64 61 59 58 59 57 57 55 54 48 41 43 54
211 209 213 225 230 232 234 231 226 222 222 223 220 220 220 220 220 218 216 213 205 202 194 180 151 113 85 70 64 61 60 61 59 60 60 58 51 44 38 35 51 61 37
203 200 215 226 229 232 234 232 229 226 225 224 222 223 223 222 222 219 219 218 216 215 215 214 214 207 150 74 66 61 63 62 57 52 51 50 48 40 31 16 12 13 20
220 228 224 223 229 231 232 231 229 225 223 224 223 223 222 223 223 221 220 221 220 219 219 222 224 226 229 240 261 301 355 17 26 24 24 24 26 26 23 12 3 355 347
203 229 233 231 237 237 235 232 231 228 226 225 224 224 223 224 225 222 222 225 225 225 227 231 237 241 245 251 258 268 281 295 309 319 326 328 332 336 344 342 331 324 323
122 142 206 235 250 250 243 240 237 233 230 226 225 225 225 226 226 225 224 226 228 230 231 235 240 245 250 254 260 266 272 277 283 288 294 304 309 312 315 316 313 316 322
329 310 287 282 271 261 256 253 246 239 233 230 226 227 228 229 229 228 230 232 233 236 238 240 242 245 250 255 258 261 265 268 271 276 282 286 290 298 304 308 311 315 318
295 298 295 288 276 277 271 263 253 246 240 232 230 228 229 232 232 232 234 237 238 240 241 245 247 247 249 253 256 259 262 265 267 271 275 279 283 285 288 292 297 302 305
290 286 286 284 282 275 276 271 263 254 246 237 234 232 230 231 234 235 237 240 243 244 245 247 250 252 254 255 257 258 260 262 264 265 266 267 270 273 277 280 282 285 290
279 281 284 283 281 279 281 279 274 267 259 249 239 235 235 235 236 240 241 244 247 249 250 251 253 254 256 257 258 258 258 259 261 262 265 268 270 270 271 274 276 279 282
278 281 281 279 278 278 276 273 267 266 262 257 249 241 237 238 239 240 244 248 250 252 254 256 257 257 257 257 258 260 261 260 261 262 263 264 264 267 268 268 272 276 280
274 276 277 275 272 269 266 266 262 256 255 254 252 247 242 240 241 244 247 250 252 254 256 256 256 257 257 257 259 260 262 261 259 260 260 262 264 266 268 271 273 272 275
327 321 301 287 279 275 271 266 261 259 258 255 252 247 242 241 241 245 252 256 257 258 257 258 258 258 257 255 256 259 261 260 260 258 259 262 265 266 267 268 269 271 276
335 341 348 342 315 299 283 275 262 250 246 242 241 240 238 241 248 253 255 255 254 253 254 257 259 260 260 258 256 257 258 258 257 256 257 261 264 270 270 268 270 277 279
299 312 333 350 2 360 333 297 280 273 266 257 253 251 250 250 252 254 254 252 248 245 245 248 250 251 253 255 255 254 258 257 253 253 255 259 262 263 262 264 274 277 279
11 8 2 334 320 313 309 305 297 280 267 261 256 254 253 253 253 252 250 248 245 244 244 244 246 249 250 251 252 248 241 239 248 249 251 254 257 259 259 256 259 268 273
334 340 337 329 324 318 310 300 290 283 275 264 256 250 247 247 246 245 243 241 241 241 241 241 245 248 249 251 249 242 238 236 236 241 251 255 255 256 260 262 267 271 275
293 296 298 295 296 298 297 292 288 283 279 272 262 254 251 248 247 245 243 242 242 240 239 240 243 246 246 253 255 248 241 242 242 246 252 256 261 264 267 271 275 276 277
302 297 294 292 282 277 278 280 283 284 279 269 264 262 255 249 246 241 239 241 239 241 241 239 238 238 238 237 236 238 243 244 243 248 255 261 265 269 272 274 276 277 278
Wind_Speed_850mb
47 50 51 50 44 41 34 28 22 19 16 13 12 10 7 6 6 6 8 9 10 11 12 12 13 16 19 23 24 24 28 28 31 34 43 44 25 22 21 10 13 17 19
50 55 60 61 54 46 42 35 29 24 21 17 13 8 4 5 6 7 7 9 11 13 13 14 14 16 19 19 21 22 26 30 25 21 20 14 27 36 26 13 19 14 15
63 65 67 68 60 56 51 42 35 30 27 22 17 14 11 9 7 7 8 9 11 12 14 15 16 16 17 17 19 22 20 23 22 20 15 12 10 19 18 22 23 22 17
66 68 71 72 68 59 54 49 42 36 33 27 23 19 16 14 10 8 8 8 9 11 13 15 16 17 18 20 22 22 23 20 16 21 23 24 18 11 10 6 12 19 15
72 73 77 73 66 60 59 53 47 43 38 33 29 25 24 17 14 12 10 9 8 9 11 13 15 15 17 19 21 21 19 19 20 16 16 16 11 9 8 3 6 7 7
70 68 72 69 65 60 61 59 55 48 44 40 35 31 29 23 21 18 15 12 10 8 9 10 12 14 15 16 17 18 19 20 18 18 15 6 4 3 2 6 10 9 8
62 67 72 73 70 69 68 64 62 56 50 46 42 37 33 28 26 23 19 15 13 10 8 8 10 11 13 14 15 16 17 17 16 16 15 13 11 10 8 7 9 10 12
50 63 69 71 66 65 67 67 68 63 56 52 48 42 37 33 30 26 23 19 15 12 9 7 7 8 10 11 12 13 13 14 15 14 13 13 13 13 12 11 13 10 11
38 53 59 62 59 59 62 63 68 66 60 57 53 46 43 39 35 32 29 24 19 16 12 8 6 5 6 8 9 10 11 11 11 10 11 11 12 12 12 11 11 11 9
25 28 41 49 50 51 54 57 63 66 62 62 57 50 44 41 39 36 32 27 24 20 15 10 7 3 1 2 4 5 6 7 6 7 8 9 10 10 11 14 17 17 13
31 25 27 33 39 42 49 56 62 68 70 68 62 57 51 48 45 41 37 33 28 24 20 17 14 11 8 5 3 2 2 3 4 4 5 6 7 8 9 11 14 17 20
23 24 23 25 30 39 46 53 59 68 74 71 68 65 59 55 52 46 41 37 32 29 26 23 20 18 15 13 11 9 8 7 6 6 6 7 7 7 6 6 7 9 13
12 7 8 16 26 35 45 52 57 66 75 78 75 73 70 66 60 52 47 44 40 35 31 28 26 24 22 20 18 17 16 14 13 12 11 11 12 13 13 13 13 14 16
4 5 13 21 31 38 43 48 55 62 74 84 86 83 82 78 69 60 56 52 47 43 39 36 34 32 29 28 27 26 25 23 21 20 19 18 18 17 17 19 21 22 23
35 40 48 47 42 46 49 49 53 60 69 85 93 94 91 86 79 71 67 62 58 54 51 48 46 43 39 37 35 33 33 31 29 28 27 26 25 24 23 23 23 24 26
60 69 69 65 62 54 53 56 55 58 66 77 91 98 99 96 90 83 79 74 71 67 64 61 58 56 52 47 45 43 42 40 38 37 35 35 33 32 31 29 28 29 30
65 72 68 62 62 60 56 60 57 56 61 70 82 98 102 101 96 93 89 85 84 80 77 73 69 67 63 59 56 54 52 50 47 45 44 43 41 40 38 38 36 36 37
58 60 61 56 56 59 59 56 57 58 58 60 70 84 98 101 101 99 95 94 94 92 88 84 81 77 72 67 65 63 62 60 58 55 52 50 47 47 45 45 45 43 42
47 48 53 50 48 45 48 51 53 55 60 61 61 70 80 91 96 96 96 98 97 95 94 92 89 88 83 75 71 68 68 66 64 62 59 56 54 51 52 54 50 50 48
13 21 26 30 33 38 44 47 48 52 53 53 55 61 68 74 79 81 83 85 88 91 91 90 88 86 84 78 77 77 75 74 70 67 66 63 61 57 56 59 56 58 52
14 17 19 17 17 20 24 30 32 37 38 38 44 50 56 59 60 63 67 69 71 75 78 80 78 75 73 72 70 73 75 74 69 67 64 60 56 57 55 53 53 53 48
7 9 12 15 17 14 11 15 21 26 31 38 43 47 50 55 59 59 60 60 61 64 65 67 69 68 66 66 64 61 66 63 63 64 60 57 53 47 42 42 50 51 51
10 8 6 7 11 15 16 14 12 13 17 23 30 36 41 45 46 47 49 50 51 53 55 58 63 62 61 60 57 51 54 49 52 56 58 53 51 50 47 43 42 45 54
14 16 16 16 14 12 11 11 13 16 18 20 22 24 26 29 31 34 35 39 42 45 47 49 53 52 49 51 47 45 47 43 46 55 53 52 52 53 57 58 60 60 61
21 24 24 21 22 23 21 20 18 18 18 21 22 24 25 24 26 28 29 32 34 34 38 40 41 42 42 44 38 36 39 42 46 49 53 56 56 57 59 62 65 65 62
22 26 29 27 25 25 27 27 27 27 27 26 26 28 28 28 30 31 31 32 32 34 35 38 38 36 37 36 34 31 32 33 35 42 50 54 56 58 56 54 54 52 49
Wind_Direction_850mb
221 218 221 228 226 229 234 238 239 232 227 217 207 193 165 135 112 85 76 73 72 73 74 69 64 59 61 58 60 60 62 87 99 99 81 71 75 78 88 117 175 175 174
216 219 220 227 228 230 231 232 235 233 230 227 229 229 191 150 129 113 95 83 79 80 83 79 72 68 69 68 66 68 71 84 117 118 116 100 71 68 68 105 103 116 147
212 215 219 225 228 226 227 230 234 232 231 230 228 226 213 201 177 145 117 102 92 85 81 83 82 78 78 81 80 76 77 79 84 126 138 125 109 105 74 72 71 78 77
218 218 223 225 228 226 224 225 228 230 228 226 224 221 218 218 199 168 145 125 109 96 89 85 82 77 72 72 73 73 76 87 95 93 104 103 126 120 132 56 70 69 59
217 215 226 229 231 227 226 223 224 227 225 223 221 221 225 218 209 193 177 157 132 111 98 90 83 77 71 68 69 73 77 77 78 93 112 128 122 140 158 204 152 14 33
217 217 225 230 232 230 228 223 223 224 224 222 222 222 225 220 213 205 194 179 163 137 110 94 86 80 76 74 72 70 70 70 73 80 89 112 144 144 202 278 328 24 46
212 209 216 223 227 229 228 224 223 223 223 221 222 221 223 218 216 213 206 195 183 165 138 111 91 82 78 74 70 66 63 66 68 70 76 80 76 66 55 37 21 39 78
198 209 219 227 229 231 231 227 225 222 222 222 221 221 220 220 219 218 213 207 195 183 167 144 113 89 77 73 70 67 64 61 59 58 59 57 57 55 54 48 41 43 54
211 209 213 225 230 232 234 231 226 222 222 223 220 220 220 220 220 218 216 213 205 202 194 180 151 113 85 70 64 61 60 61 59 60 60 58 51 44 38 35 51 61 37
203 200 215 226 229 232 234 232 229 226 225 224 222 223 223 222 222 219 219 218 216 215 215 214 214 207 150 74 66 61 63 62 57 52 51 50 48 40 31 16 12 13 20
220 228 224 223 229 231 232 231 229 225 223 224 223 223 222 223 223 221 220 221 220 219 219 222 224 226 229 240 261 301 355 17 26 24 24 24 26 26 23 12 3 355 347
203 229 233 231 237 237 235 232 231 228 226 225 224 224 223 224 225 222 222 225 225 225 227 231 237 241 245 251 258 268 281 295 309 319 326 328 332 336 344 342 331 324 323
122 142 206 235 250 250 243 240 237 233 230 226 225 225 225 226 226 225 224 226 228 230 231 235 240 245 250 254 260 266 272 277 283 288 294 304 309 312 315 316 313 316 322
329 310 287 282 271 261 256 253 246 239 233 230 226 227 228 229 229 228 230 232 233 236 238 240 242 245 250 255 258 261 265 268 271 276 282 286 290 298 304 308 311 315 318
295 298 295 288 276 277 271 263 253 246 240 232 230 228 229 232 232 232 234 237 238 240 241 245 247 247 249 253 256 259 262 265 267 271 275 279 283 285 288 292 297 302 305
290 286 286 284 282 275 276 271 263 254 246 237 234 232 230 231 234 235 237 240 243 244 245 247 250 252 254 255 257 258 260 262 264 265 266 267 270 273 277 280 282 285 290
279 281 284 283 281 279 281 279 274 267 259 249 239 235 235 235 236 240 241 244 247 249 250 251 253 254 256 257 258 258 258 259 261 262 265 268 270 270 271 274 276 279 282
278 281 281 279 278 278 276 273 267 266 262 257 249 241 237 238 239 240 244 248 250 252 254 256 257 257 257 257 258 260 261 260 261 262 263 264 264 267 268 268 272 276 280
274 276 277 275 272 269 266 266 262 256 255 254 252 247 242 240 241 244 247 250 252 254 256 256 256 257 257 257 259 260 262 261 259 260 260 262 264 266 268 271 273 272 275
327 321 301 287 279 275 271 266 261 259 258 255 252 247 242 241 241 245 252 256 257 258 257 258 258 258 257 255 256 259 261 260 260 258 259 262 265 266 267 268 269 271 276
335 341 348 342 315 299 283 275 262 250 246 242 241 240 238 241 248 253 255 255 254 253 254 257 259 260 260 258 256 257 258 258 257 256 257 261 264 270 270 268 270 277 279
299 312 333 350 2 360 333 297 280 273 266 257 253 251 250 250 252 254 254 252 248 245 245 248 250 251 253 255 255 254 258 257 253 253 255 259 262 263 262 264 274 277 279
11 8 2 334 320 313 309 305 297 280 267 261 256 254 253 253 253 252 250 248 245 244 244 244 246 249 250 251 252 248 241 239 248 249 251 254 257 259 259 256 259 268 273
334 340 337 329 324 318 310 300 290 283 275 264 256 250 247 247 246 245 243 241 241 241 241 241 245 248 249 251 249 242 238 236 236 241 251 255 255 256 260 262 267 271 275
293 296 298 295 296 298 297 292 288 283 279 272 262 254 251 248 247 245 243 242 242 240 239 240 243 246 246 253 255 248 241 242 242 246 252 256 261 264 267 271 275 276 277
302 297 294 292 282 277 278 280 283 284 279 269 264 262 255 249 246 241 239 241 239 241 241 239 238 238 238 237 236 238 243 244 243 248 255 261 265 269 272 274 276 277 278